Burbank, CA

3:01 PM PDT on August 20, 2017 (GMT -0700)
Burbank-Glendale-Pasadena

Weather History for KBUR - February, 2015

Change the Weather History Date:

Sunday, February 22, 2015

  Actual Average Record
Temperature  
Mean Temperature 57 °F 56 °F  
Max Temperature 60 °F 68 °F 88 °F (2002)
Min Temperature 53 °F 45 °F 34 °F (1959)
Degree Days  
Heating Degree Days 8 9  
Month to date heating degree days 42 208  
Since 1 July heating degree days 509 1091  
Cooling Degree Days 0 0  
Month to date cooling degree days 20 0  
Year to date cooling degree days 26 2  
Growing Degree Days 6 (Base 50)    
Moisture  
Dew Point 49 °F    
Average Humidity 79    
Maximum Humidity 93    
Minimum Humidity 64    
Precipitation  
Precipitation 0.32 in 0.18 in 3.08 in (1944)
Month to date precipitation 0.33 3.55  
Year to date precipitation 1.44 7.08  
Sea Level Pressure  
Sea Level Pressure 29.84 in    
Wind  
Wind Speed 6 mph (SSE)    
Max Wind Speed 16 mph    
Max Gust Speed 21 mph    
Visibility 8 miles    
Events Rain    
T = Trace of Precipitation, MM = Missing Value Source: NWS Daily Summary

Daily Weather History Graph

Daily Weather History Graph

Search for Another Location

Airport or City:

Trip Planner

Search our weather history database for the weather conditions in past years. The results will help you decide how hot, cold, wet, or windy it might be!

Date:

Astronomy

Feb. 22, 2015 Rise Set
Actual Time 6:30 AM PST 5:43 PM PST
Civil Twilight 6:05 AM PST 6:08 PM PST
Nautical Twilight 5:36 AM PST 6:38 PM PST
Astronomical Twilight 5:07 AM PST 7:07 PM PST
Moon 8:57 AM PST (2/22) 10:18 PM PST (2/22)
Length of Visible Light 12h 03m
Length of Day
11h 12m
Waxing Crescent, 20% of the Moon is Illuminated
Feb 22
Waxing Crescent
Feb 25
First Quarter
Mar 5
Full
Mar 13
Last Quarter
Mar 20
New

Hourly Weather History & Observations

Time (PST) Temp. Dew Point Humidity Pressure Visibility Wind Dir Wind Speed Gust Speed Precip Events Conditions
12:53 AM 57.0 °F 50.0 °F 77% 29.88 in 10.0 mi South 5.8 mph - N/A   Overcast
1:31 AM 57.2 °F 48.2 °F 72% 29.90 in 10.0 mi SSE 3.5 mph - N/A   Overcast
1:53 AM 57.0 °F 48.9 °F 74% 29.87 in 10.0 mi South 4.6 mph - N/A   Overcast
2:16 AM 57.2 °F 48.2 °F 72% 29.88 in 10.0 mi SSE 6.9 mph - N/A   Overcast
2:53 AM 57.0 °F 48.9 °F 74% 29.85 in 10.0 mi SSE 5.8 mph - N/A   Overcast
3:53 AM 57.0 °F 48.0 °F 72% 29.84 in 10.0 mi SE 8.1 mph - N/A   Overcast
4:53 AM 55.9 °F 48.0 °F 75% 29.84 in 10.0 mi SSE 5.8 mph - N/A   Overcast
5:53 AM 55.9 °F 48.0 °F 75% 29.85 in 10.0 mi SSE 6.9 mph - N/A   Overcast
6:53 AM 57.0 °F 48.0 °F 72% 29.86 in 10.0 mi SE 9.2 mph - N/A   Overcast
7:53 AM 57.0 °F 48.0 °F 72% 29.86 in 10.0 mi SE 8.1 mph - N/A   Overcast
8:53 AM 57.9 °F 46.9 °F 67% 29.87 in 10.0 mi SE 10.4 mph - N/A   Overcast
9:53 AM 57.0 °F 48.9 °F 74% 29.86 in 10.0 mi SE 9.2 mph - 0.00 in Rain Light Rain
10:25 AM 57.2 °F 48.2 °F 72% 29.89 in 6.0 mi SSE 11.5 mph - 0.01 in Rain Light Rain
10:53 AM 57.0 °F 48.9 °F 74% 29.86 in 6.0 mi SE 6.9 mph - 0.01 in Rain Light Rain
11:36 AM 57.2 °F 50.0 °F 77% 29.87 in 7.0 mi SSE 11.5 mph 16.1 mph 0.01 in Rain Light Rain
11:53 AM 55.9 °F 51.1 °F 84% 29.85 in 4.0 mi South 3.5 mph - 0.03 in Rain Light Rain
12:44 PM 57.2 °F 51.8 °F 82% 29.85 in 8.0 mi East 4.6 mph - 0.03 in   Overcast
12:53 PM 57.0 °F 52.0 °F 83% 29.82 in 8.0 mi ESE 5.8 mph - 0.03 in   Overcast
1:53 PM 60.1 °F 48.0 °F 64% 29.81 in 10.0 mi SSE 13.8 mph - N/A   Mostly Cloudy
1:55 PM 60.8 °F 48.2 °F 63% 29.83 in 10.0 mi South 11.5 mph - N/A   Overcast
2:53 PM 57.0 °F 50.0 °F 77% 29.81 in 10.0 mi South 4.6 mph - 0.01 in Rain Light Rain
3:53 PM 57.0 °F 48.9 °F 74% 29.80 in 10.0 mi South 9.2 mph - 0.01 in   Overcast
4:38 PM 53.6 °F 51.8 °F 94% 29.82 in 2.0 mi SSW 6.9 mph - 0.01 in Rain Rain
4:53 PM 54.0 °F 51.1 °F 90% 29.80 in 2.0 mi SSW 5.8 mph - 0.02 in Rain Light Rain
5:20 PM 53.6 °F 51.8 °F 94% 29.82 in 1.5 mi South 4.6 mph - 0.02 in Rain Rain
5:53 PM 53.1 °F 51.1 °F 93% 29.81 in 1.5 mi Variable 6.9 mph - 0.06 in Rain Light Rain
6:00 PM 53.6 °F 51.8 °F 94% 29.82 in 8.0 mi East 6.9 mph - 0.00 in Rain Light Rain
6:53 PM 54.0 °F 50.0 °F 86% 29.80 in 10.0 mi ESE 9.2 mph - 0.00 in Rain Light Rain
6:56 PM 53.6 °F 50.0 °F 88% 29.82 in 10.0 mi ESE 8.1 mph - 0.00 in Rain Light Rain
7:53 PM 53.1 °F 50.0 °F 89% 29.81 in 5.0 mi SSE 4.6 mph - 0.09 in Rain Rain
8:53 PM 54.0 °F 50.0 °F 86% 29.82 in 10.0 mi Calm Calm - 0.00 in   Mostly Cloudy
9:53 PM 53.1 °F 48.9 °F 86% 29.82 in 8.0 mi Calm Calm - 0.04 in Rain Rain
10:53 PM 53.1 °F 48.9 °F 86% 29.81 in 10.0 mi Calm Calm - 0.02 in   Overcast
11:53 PM 53.1 °F 48.9 °F 86% 29.82 in 10.0 mi SW 4.6 mph - N/A   Overcast